[[{"header":{"parameterUnit":"m.s-1","parameterCategory":1,"la1":30.2991,"la2":30.254,"lo1":-89.0895,"lo2":-89.0444,"dy":0.0017,"dx":0.0017,"nx":28,"ny":28,"refTime":"2025-08-12T21:00:00:Z","depth":0,"parameterNumber":2,"parameterNumberName":"U-component_of_WINDS"},"data":[0,0,0,0,0,0,0,0,0,0,0,0,0,0,0,0,0,0,0,0,0,0,0,0,0,0,0,0,0,0,0,0,0,0,0,0,0,0,0,0,0,0,0,0,0,0,0,0,0,0,0,0,0,0,0,0,0,0,2.573,2.5732,0,2.5893,2.5895,2.5897,2.5941,2.594,2.5939,2.5938,2.6103,2.6109,2.6114,0,0,0,0,0,0,0,0,0,0,0,0,0,2.5452,2.5457,2.573,2.5732,2.5734,2.5893,2.5895,2.5898,2.5941,2.594,2.5938,2.5937,2.6102,2.6108,2.6114,0,0,0,0,0,0,0,0,0,0,0,0,0,2.559,2.5459,2.5729,2.5775,2.578,2.5893,2.5895,2.5898,2.5941,2.594,2.5938,2.5937,2.61,2.6107,2.6115,2.6194,0,0,2.614,2.6143,0,0,0,0,0,0,0,0,2.5582,2.56,2.5766,2.5772,2.5778,2.5895,2.5858,2.5997,2.5941,2.588,2.5938,2.5936,2.6035,2.6048,2.6082,2.6202,2.6209,2.614,2.6145,2.6149,2.6151,0,0,0,0,0,0,0,2.5573,2.5593,2.5794,2.5768,2.5776,2.5786,2.5804,2.5885,2.5964,2.5885,2.5889,2.5908,2.6038,2.6074,2.6086,2.6211,2.614,2.6147,2.6152,2.6155,2.6403,2.6404,0,0,0,0,0,0,2.5556,2.5585,2.5789,2.5799,2.5675,2.5792,2.5812,2.5859,2.5963,2.5977,2.5909,2.5909,2.6062,2.6077,2.6092,2.6191,2.6149,2.6156,2.6161,2.6401,2.6403,2.6405,0,0,0,0,0,0,2.5549,2.5573,2.5783,2.5693,2.5721,2.5799,2.5851,2.5863,2.5899,2.5981,2.5995,2.5931,2.6061,2.6081,2.6168,2.6197,2.616,2.6167,2.6399,2.6401,2.6404,2.6388,0,0,0,0,0,0,2.5541,2.5571,2.5602,2.5694,2.5725,2.5856,2.5853,2.5867,2.5913,2.5915,2.6006,2.6019,2.6061,2.6156,2.6176,2.6207,2.6173,2.6396,2.64,2.6403,2.6386,2.639,2.6393,0,0,0,0,0,2.5531,2.559,2.5603,2.5628,2.5766,2.5858,2.5876,2.5924,2.5915,2.5947,2.5999,2.6016,2.6191,2.6165,2.6188,2.6222,2.6395,2.6399,2.6403,2.6385,2.6389,2.6393,0,0,0,0,0,0,2.5499,2.5603,2.5619,2.571,2.5775,2.5865,2.5906,2.5927,2.5995,2.5994,2.605,2.607,2.6153,2.6196,2.6165,2.6303,2.6293,2.6302,2.6271,2.6276,2.6279,2.6266,2.618,0,0,0,0,0,2.5503,2.5569,2.5657,2.5728,2.576,2.5827,2.5869,2.5901,2.597,2.5997,2.6056,2.6122,2.6192,2.6237,2.6305,2.6393,2.6413,2.6428,2.6431,2.6433,2.644,2.6489,2.6496,2.6418,2.6418,2.6418,0,0,2.5511,2.5576,2.5614,2.5724,2.5778,2.5845,2.585,2.5921,2.5971,2.6008,2.6094,2.6139,2.6217,2.6304,2.6346,2.6343,2.6466,2.6438,2.644,2.6445,2.6494,2.6501,2.6507,2.6421,2.642,2.642,0,0,2.5559,2.5616,2.5681,2.5736,2.5818,2.5862,2.5878,2.5965,2.5997,2.6084,2.6113,2.6174,2.6293,2.6346,2.6389,2.6459,2.6477,2.6479,2.6496,2.6543,2.6549,2.6555,2.6578,2.6586,2.6486,2.6486,2.6486,0,2.5558,2.5661,2.5712,2.5782,2.5828,2.5866,2.5933,2.5983,2.6082,2.6114,2.6109,2.626,2.6314,2.6415,2.6431,2.6465,2.6484,2.6469,2.6544,2.655,2.6556,2.658,2.6589,2.6486,2.6486,2.6486,2.6486,0,2.5655,2.5726,2.5769,2.5866,2.5917,2.5985,2.6046,2.6092,2.6119,2.6163,2.6251,2.6319,2.6401,2.6428,2.6455,2.6532,2.6528,2.6533,2.6524,2.6563,2.6585,2.6595,2.6485,2.6485,2.6485,2.6486,0,0,2.5687,2.5811,2.5826,2.587,2.5964,2.6019,2.6088,2.617,2.6208,2.6276,2.6334,2.6435,2.644,2.6489,2.6522,2.6564,2.6613,2.6564,2.6567,2.657,2.6702,2.6696,2.6705,2.6626,2.6628,2.663,2.6695,0,2.5746,2.5872,2.592,2.6022,2.6087,2.6124,2.6185,2.6248,2.6292,2.6353,2.6401,2.6471,2.6474,2.6503,2.6546,2.6598,2.664,2.6594,2.668,2.6683,2.6659,2.6718,2.6712,2.677,2.6704,2.6706,2.6707,0,2.5832,2.5901,2.601,2.6095,2.6125,2.6178,2.6256,2.6315,2.6388,2.6416,2.6471,2.6502,2.6575,2.6562,2.6663,2.6631,2.6669,2.67,2.6703,2.6712,2.6696,2.6727,2.679,2.6798,2.6722,2.672,2.6719,0,2.5843,2.5963,2.6044,2.608,2.6182,2.6219,2.6263,2.6334,2.638,2.6449,2.6479,2.6555,2.6596,2.6654,2.6704,2.6691,2.68,2.6792,2.6825,2.6824,2.6846,2.6843,2.6914,2.6872,2.6872,2.6872,2.6872,0,2.5903,2.5968,2.605,2.6099,2.6173,2.6228,2.6298,2.6345,2.6408,2.6466,2.6503,2.6557,2.6621,2.6683,2.6723,2.68,2.6819,2.6843,2.6853,2.684,2.6836,2.6864,2.6861,2.6874,2.6874,2.6873,2.6873,0,2.5927,2.5985,2.6075,2.6164,2.6188,2.6238,2.6315,2.6364,2.6409,2.6483,2.6503,2.6574,2.6649,2.6706,2.6803,2.683,2.6911,2.6922,2.6886,2.6891,2.6921,2.6917,2.7012,2.7026,2.6975,2.6976,2.6976,0,2.5961,2.6012,2.6107,2.6149,2.6193,2.6261,2.6308,2.6364,2.6411,2.6498,2.6536,2.6614,2.6679,2.6797,2.6857,2.6931,2.6943,2.6971,2.6954,2.6939,2.6942,2.6938,2.6943,2.6973,2.6973,2.6973,2.6973,0,2.6015,2.6041,2.6108,2.6186,2.6241,2.6304,2.6368,2.6401,2.6468,2.6519,2.6597,2.6647,2.6746,2.6823,2.6903,2.6948,2.6972,2.6978,2.699,2.6976,2.6953,2.6965,2.6891,2.6976,2.6975,2.6975,2.6975,2.6975,2.6045,2.6091,2.6166,2.6239,2.6293,2.6352,2.6402,2.6454,2.652,2.6606,2.6635,2.6714,2.6786,2.6896,2.6942,2.7004,2.7004,2.7021,2.7025,2.7028,2.7027,2.6944,2.7019,2.7019,2.7019,2.7019,2.7019,0,2.61,2.6149,2.6216,2.6305,2.6363,2.6381,2.6453,2.6499,2.6569,2.6634,2.6697,2.6786,2.686,2.6926,2.7003,2.7041,2.7054,2.7059,2.7056,2.7066,2.7023,2.7005,2.7047,2.7047,2.7047,2.7047,2.7047,2.7047,2.6135,2.6214,2.6249,2.6356,2.6406,2.6484,2.6523,2.6578,2.663,2.6727,2.6789,2.6832,2.6898,2.698,2.7048,2.7066,2.7092,2.7095,2.7115,2.7073,2.7069,2.7066,2.7049,2.71,2.71,2.7153,2.7153,2.7154]},{"header":{"parameterUnit":"m.s-1","parameterCategory":1,"la1":30.2991,"la2":30.254,"lo1":-89.0895,"lo2":-89.0444,"dy":0.0017,"dx":0.0017,"nx":28,"ny":28,"refTime":"2025-08-12T21:00:00:Z","depth":0,"parameterNumber":3,"parameterNumberName":"V-component_of_WINDS"},"data":[0,0,0,0,0,0,0,0,0,0,0,0,0,0,0,0,0,0,0,0,0,0,0,0,0,0,0,0,0,0,0,0,0,0,0,0,0,0,0,0,0,0,0,0,0,0,0,0,0,0,0,0,0,0,0,0,0,0,0.039,0.0391,0,0.0534,0.0536,0.0538,0.0585,0.0585,0.0584,0.0584,0.0738,0.0742,0.0747,0,0,0,0,0,0,0,0,0,0,0,0,0,0.0162,0.0166,0.039,0.0392,0.0393,0.0534,0.0536,0.0538,0.0586,0.0585,0.0584,0.0583,0.0736,0.0742,0.0747,0,0,0,0,0,0,0,0,0,0,0,0,0,0.0279,0.0167,0.0389,0.0434,0.0439,0.0534,0.0536,0.0539,0.0586,0.0585,0.0584,0.0583,0.0734,0.0741,0.0748,0.0811,0,0,0.077,0.0773,0,0,0,0,0,0,0,0,0.0273,0.0288,0.0426,0.0431,0.0437,0.0541,0.0512,0.063,0.0586,0.053,0.0584,0.0582,0.0673,0.0685,0.0715,0.0818,0.0825,0.077,0.0775,0.0778,0.078,0,0,0,0,0,0,0,0.0264,0.0282,0.0447,0.0428,0.0435,0.0449,0.0465,0.0535,0.0606,0.0535,0.0539,0.0555,0.0677,0.0708,0.0719,0.0827,0.077,0.0777,0.0781,0.0784,0.0992,0.0993,0,0,0,0,0,0,0.0248,0.0275,0.0443,0.0452,0.0351,0.0454,0.0471,0.0509,0.0605,0.0619,0.0556,0.0557,0.0696,0.0711,0.0724,0.0806,0.0778,0.0784,0.0788,0.0991,0.0992,0.0994,0,0,0,0,0,0,0.0243,0.0262,0.0437,0.0364,0.0387,0.0459,0.05,0.0512,0.0543,0.062,0.0634,0.0574,0.0696,0.0715,0.0789,0.0812,0.0787,0.0794,0.0989,0.0991,0.0993,0.0969,0,0,0,0,0,0,0.0236,0.026,0.0283,0.0364,0.0391,0.0497,0.0502,0.0515,0.0555,0.0557,0.0642,0.0655,0.0697,0.0778,0.0796,0.0821,0.0799,0.0987,0.099,0.0992,0.0968,0.097,0.0971,0,0,0,0,0,0.0228,0.0271,0.0284,0.0304,0.0421,0.0498,0.0514,0.056,0.0556,0.0581,0.0631,0.0652,0.0806,0.0786,0.0806,0.0834,0.0986,0.0989,0.0992,0.0967,0.0969,0.0971,0,0,0,0,0,0,0.0193,0.0283,0.0298,0.0368,0.0425,0.0506,0.0539,0.056,0.062,0.0621,0.0677,0.0696,0.0767,0.0808,0.0783,0.0901,0.0898,0.0905,0.0872,0.0874,0.0876,0.0866,0.0805,0,0,0,0,0,0.0193,0.0246,0.0323,0.0378,0.0405,0.0467,0.0502,0.0533,0.0594,0.0619,0.0674,0.0735,0.0798,0.0838,0.09,0.0973,0.0994,0.1003,0.1004,0.1005,0.1012,0.1056,0.1062,0.1003,0.1003,0.1003,0,0,0.0195,0.0251,0.0281,0.0372,0.042,0.0476,0.0487,0.0546,0.0589,0.0629,0.0703,0.0745,0.0818,0.0892,0.0928,0.0929,0.1032,0.1009,0.1009,0.1015,0.106,0.1065,0.107,0.1005,0.1005,0.1005,0,0,0.0228,0.0273,0.0326,0.0373,0.0444,0.0484,0.0497,0.0575,0.0604,0.0678,0.071,0.0764,0.0869,0.092,0.0959,0.1012,0.1034,0.103,0.104,0.1082,0.1087,0.1092,0.1113,0.1119,0.1036,0.1036,0.1036,0,0.0222,0.0305,0.035,0.0407,0.0448,0.0485,0.0539,0.0584,0.0672,0.07,0.0699,0.0833,0.0884,0.0973,0.0985,0.1015,0.1034,0.1022,0.1082,0.1087,0.1092,0.1113,0.1121,0.1035,0.1035,0.1035,0.1035,0,0.0296,0.0353,0.0387,0.047,0.0514,0.057,0.0625,0.0665,0.0691,0.0733,0.081,0.0872,0.0948,0.0971,0.0998,0.1064,0.1063,0.1071,0.1069,0.1096,0.1117,0.1125,0.1034,0.1034,0.1034,0.1034,0,0,0.0311,0.0417,0.043,0.0468,0.0549,0.0596,0.0655,0.0727,0.0761,0.0821,0.0873,0.0962,0.0971,0.1016,0.1049,0.1086,0.1126,0.109,0.1093,0.1097,0.1206,0.1201,0.1209,0.1141,0.1143,0.1144,0.1201,0,0.0356,0.0459,0.0502,0.0587,0.0643,0.0679,0.073,0.0787,0.0827,0.0882,0.0928,0.0991,0.0996,0.1024,0.1062,0.1113,0.115,0.1109,0.1193,0.1196,0.1176,0.122,0.1214,0.1265,0.1209,0.1211,0.1212,0,0.0422,0.0481,0.057,0.0646,0.0671,0.0716,0.0787,0.0838,0.0904,0.0931,0.0981,0.1012,0.1078,0.107,0.1163,0.1135,0.1172,0.1202,0.1205,0.1217,0.1207,0.1235,0.1282,0.1291,0.1224,0.1223,0.1222,0,0.0427,0.0529,0.0596,0.0628,0.0717,0.0749,0.0788,0.0853,0.0894,0.0956,0.0984,0.1054,0.1093,0.1147,0.1197,0.1186,0.1286,0.1282,0.1313,0.1312,0.1335,0.1333,0.1391,0.1354,0.1354,0.1354,0.1354,0,0.0474,0.0528,0.06,0.0642,0.0704,0.0754,0.0815,0.0857,0.0915,0.0968,0.1003,0.1052,0.1114,0.1172,0.1212,0.1284,0.1301,0.1327,0.1337,0.1325,0.1322,0.1352,0.1351,0.1356,0.1355,0.1355,0.1355,0,0.0491,0.0541,0.0617,0.0695,0.0716,0.0759,0.0828,0.0871,0.0913,0.0979,0.0998,0.1065,0.1135,0.1189,0.1281,0.1308,0.1385,0.1395,0.1362,0.1368,0.1397,0.1395,0.1479,0.1493,0.1444,0.1444,0.1444,0,0.0519,0.0561,0.0643,0.068,0.0719,0.0777,0.0819,0.087,0.0913,0.0992,0.1027,0.1098,0.1159,0.127,0.1328,0.1399,0.1413,0.1437,0.1424,0.1411,0.1417,0.1415,0.142,0.144,0.144,0.144,0.144,0,0.0563,0.0586,0.0644,0.0711,0.0759,0.0815,0.0872,0.0901,0.0962,0.1009,0.108,0.1127,0.122,0.1292,0.1369,0.1413,0.1438,0.1444,0.1455,0.1445,0.1425,0.1439,0.137,0.1442,0.1442,0.1442,0.1442,0.1442,0.0589,0.0629,0.0693,0.0757,0.0805,0.0857,0.0902,0.0949,0.1009,0.1087,0.1114,0.1188,0.1255,0.1361,0.1405,0.1465,0.1467,0.1483,0.1488,0.1491,0.1491,0.1413,0.1479,0.1479,0.1479,0.1479,0.1479,0,0.0637,0.068,0.0738,0.0816,0.0867,0.0883,0.0947,0.099,0.1054,0.1113,0.1172,0.1255,0.1325,0.1389,0.1463,0.15,0.1513,0.1518,0.1517,0.1527,0.1484,0.1468,0.1506,0.1506,0.1505,0.1505,0.1505,0.1505,0.0668,0.0738,0.0768,0.0863,0.0906,0.0977,0.1013,0.1063,0.1111,0.1201,0.1259,0.1299,0.1362,0.1441,0.1507,0.1524,0.1551,0.1553,0.1574,0.1533,0.153,0.1527,0.1512,0.1558,0.1558,0.1612,0.1612,0.1613]}]]